Time,TemperatureF,DewpointF,PressureIn,WindDirection,WindDirectionDegrees,WindSpeedMPH,WindSpeedGustMPH,Humidity,HourlyPrecipIn,Conditions,Clouds,dailyrainin,SoftwareType,DateUTC
2013-03-18 00:03:00,52.0,42.0,-100.00,East,90,8.0,23.0,68,-99.99,,,-99.99,,2013-03-18 04:03:00,
2013-03-18 00:13:00,52.0,42.0,-100.00,East,90,4.0,14.0,69,-99.99,,,-99.99,,2013-03-18 04:13:00,
2013-03-18 00:23:00,51.0,42.0,-100.00,ESE,105,4.0,14.0,70,-99.99,,,-99.99,,2013-03-18 04:23:00,
2013-03-18 00:33:00,51.0,41.0,-100.00,East,80,5.0,18.0,71,-99.99,,,-99.99,,2013-03-18 04:33:00,
2013-03-18 00:42:00,50.0,41.0,-100.00,East,80,10.0,16.0,71,-99.99,,,-99.99,,2013-03-18 04:42:00,
2013-03-18 00:52:00,50.0,41.0,-100.00,East,80,10.0,19.0,72,-99.99,,,-99.99,,2013-03-18 04:52:00,
2013-03-18 01:03:00,49.0,41.0,-100.00,East,80,8.0,20.0,73,-99.99,,,-99.99,,2013-03-18 05:03:00,
2013-03-18 01:12:00,49.0,41.0,-100.00,East,85,8.0,14.0,74,-99.99,,,-99.99,,2013-03-18 05:12:00,
2013-03-18 01:22:00,49.0,41.0,-100.00,East,100,6.0,14.0,74,-99.99,,,-99.99,,2013-03-18 05:22:00,
2013-03-18 01:32:00,48.0,40.0,-100.00,East,80,3.0,20.0,75,-99.99,,,-99.99,,2013-03-18 05:32:00,
2013-03-18 01:43:00,48.0,41.0,-100.00,East,80,8.0,16.0,76,-99.99,,,-99.99,,2013-03-18 05:43:00,
2013-03-18 01:52:00,48.0,40.0,-100.00,East,95,4.0,16.0,76,-99.99,,,-99.99,,2013-03-18 05:52:00,
2013-03-18 02:02:00,47.0,40.0,-100.00,ENE,75,4.0,17.0,77,-99.99,,,-99.99,,2013-03-18 06:02:00,
2013-03-18 02:12:00,47.0,40.0,-100.00,East,80,6.0,18.0,78,-99.99,,,-99.99,,2013-03-18 06:12:00,
2013-03-18 02:22:00,47.0,40.0,-100.00,East,85,4.0,13.0,79,-99.99,,,-99.99,,2013-03-18 06:22:00,
2013-03-18 02:32:00,47.0,41.0,-100.00,East,85,6.0,19.0,80,-99.99,,,-99.99,,2013-03-18 06:32:00,
2013-03-18 02:42:00,46.0,41.0,-100.00,East,95,6.0,19.0,81,-99.99,,,-99.99,,2013-03-18 06:42:00,
2013-03-18 02:52:00,46.0,41.0,-100.00,SE,130,2.0,13.0,82,-99.99,,,-99.99,,2013-03-18 06:52:00,
2013-03-18 03:02:00,46.0,41.0,-100.00,East,90,4.0,14.0,83,-99.99,,,-99.99,,2013-03-18 07:02:00,
2013-03-18 03:12:00,46.0,42.0,-100.00,East,85,5.0,14.0,84,-99.99,,,-99.99,,2013-03-18 07:12:00,
2013-03-18 03:23:00,46.0,42.0,-100.00,East,90,4.0,11.0,84,-99.99,,,-99.99,,2013-03-18 07:23:00,
2013-03-18 03:33:00,46.0,42.0,-100.00,East,95,4.0,17.0,85,-99.99,,,-99.99,,2013-03-18 07:33:00,
2013-03-18 03:42:00,46.0,42.0,-100.00,East,80,8.0,18.0,86,-99.99,,,-99.99,,2013-03-18 07:42:00,
2013-03-18 03:52:00,46.0,42.0,-100.00,East,95,6.0,19.0,87,-99.99,,,-99.99,,2013-03-18 07:52:00,
2013-03-18 04:02:00,45.0,42.0,-100.00,East,85,5.0,14.0,88,-99.99,,,-99.99,,2013-03-18 08:02:00,
2013-03-18 04:12:00,45.0,42.0,-100.00,East,80,8.0,17.0,89,-99.99,,,-99.99,,2013-03-18 08:12:00,
2013-03-18 04:22:00,45.0,42.0,-100.00,East,95,4.0,14.0,89,-99.99,,,-99.99,,2013-03-18 08:22:00,
2013-03-18 04:32:00,45.0,42.0,-100.00,East,80,8.0,16.0,91,-99.99,,,-99.99,,2013-03-18 08:32:00,
2013-03-18 04:43:00,45.0,42.0,-100.00,ENE,70,4.0,15.0,91,-99.99,,,-99.99,,2013-03-18 08:43:00,
2013-03-18 04:52:00,45.0,43.0,-100.00,ENE,75,4.0,14.0,92,-99.99,,,-99.99,,2013-03-18 08:52:00,
2013-03-18 05:02:00,45.0,43.0,-100.00,ENE,70,2.0,13.0,93,-99.99,,,-99.99,,2013-03-18 09:02:00,
2013-03-18 05:12:00,44.0,43.0,-100.00,ENE,75,6.0,16.0,94,-99.99,,,-99.99,,2013-03-18 09:12:00,
2013-03-18 05:22:00,44.0,43.0,-100.00,ENE,75,5.0,11.0,94,-99.99,,,-99.99,,2013-03-18 09:22:00,
2013-03-18 05:33:00,44.0,43.0,-100.00,East,80,7.0,14.0,95,-99.99,,,-99.99,,2013-03-18 09:33:00,
2013-03-18 05:43:00,44.0,43.0,-100.00,East,85,5.0,14.0,96,-99.99,,,-99.99,,2013-03-18 09:43:00,
2013-03-18 05:53:00,44.0,43.0,-100.00,East,90,6.0,14.0,97,-99.99,,,-99.99,,2013-03-18 09:53:00,
2013-03-18 06:04:00,44.0,43.0,-100.00,East,80,5.0,11.0,98,-99.99,,,-99.99,,2013-03-18 10:04:00,
2013-03-18 06:13:00,44.0,43.0,-100.00,East,85,4.0,10.0,98,-99.99,,,-99.99,,2013-03-18 10:13:00,
2013-03-18 06:23:00,44.0,43.0,-100.00,East,90,4.0,12.0,98,-99.99,,,-99.99,,2013-03-18 10:23:00,
2013-03-18 06:33:00,44.0,43.0,-100.00,ENE,75,4.0,10.0,98,-99.99,,,-99.99,,2013-03-18 10:33:00,
2013-03-18 06:42:00,43.0,43.0,-100.00,East,90,5.0,12.0,99,-99.99,,,-99.99,,2013-03-18 10:42:00,
2013-03-18 06:53:00,43.0,43.0,-100.00,East,100,4.0,16.0,99,-99.99,,,-99.99,,2013-03-18 10:53:00,
2013-03-18 07:03:00,43.0,43.0,-100.00,ESE,105,5.0,11.0,99,-99.99,,,-99.99,,2013-03-18 11:03:00,
2013-03-18 07:13:00,43.0,43.0,-100.00,East,95,2.0,16.0,99,-99.99,,,-99.99,,2013-03-18 11:13:00,
2013-03-18 07:22:00,43.0,42.0,-100.00,East,100,6.0,21.0,99,-99.99,,,-99.99,,2013-03-18 11:22:00,
2013-03-18 07:32:00,42.0,42.0,-100.00,East,80,5.0,14.0,99,-99.99,,,-99.99,,2013-03-18 11:32:00,
2013-03-18 07:42:00,42.0,42.0,-100.00,East,85,1.0,11.0,99,-99.99,,,-99.99,,2013-03-18 11:42:00,
2013-03-18 07:52:00,42.0,42.0,-100.00,East,85,1.0,11.0,99,-99.99,,,-99.99,,2013-03-18 11:52:00,
2013-03-18 08:03:00,42.0,42.0,-100.00,East,90,7.0,16.0,99,-99.99,,,-99.99,,2013-03-18 12:03:00,
2013-03-18 08:13:00,42.0,42.0,-100.00,East,90,7.0,16.0,99,-99.99,,,-99.99,,2013-03-18 12:13:00,
2013-03-18 08:22:00,42.0,41.0,-100.00,East,100,6.0,17.0,99,-99.99,,,-99.99,,2013-03-18 12:22:00,
2013-03-18 08:32:00,42.0,41.0,-100.00,SE,140,1.0,11.0,99,-99.99,,,-99.99,,2013-03-18 12:32:00,
2013-03-18 08:43:00,41.0,41.0,-100.00,ENE,70,3.0,13.0,99,-99.99,,,-99.99,,2013-03-18 12:43:00,
2013-03-18 08:52:00,41.0,41.0,-100.00,ENE,65,4.0,11.0,99,-99.99,,,-99.99,,2013-03-18 12:52:00,
2013-03-18 09:03:00,41.0,41.0,-100.00,ENE,75,4.0,14.0,99,-99.99,,,-99.99,,2013-03-18 13:03:00,
2013-03-18 09:12:00,41.0,41.0,-100.00,ENE,65,4.0,15.0,99,-99.99,,,-99.99,,2013-03-18 13:12:00,
2013-03-18 09:22:00,41.0,41.0,-100.00,East,85,5.0,11.0,99,-99.99,,,-99.99,,2013-03-18 13:22:00,
2013-03-18 09:33:00,41.0,41.0,-100.00,East,90,6.0,16.0,99,-99.99,,,-99.99,,2013-03-18 13:33:00,
2013-03-18 09:42:00,41.0,41.0,-100.00,East,80,4.0,9.0,99,-99.99,,,-99.99,,2013-03-18 13:42:00,
2013-03-18 09:52:00,41.0,41.0,-100.00,East,90,3.0,20.0,99,-99.99,,,-99.99,,2013-03-18 13:52:00,
2013-03-18 10:03:00,41.0,41.0,-100.00,East,85,7.0,15.0,99,-99.99,,,-99.99,,2013-03-18 14:03:00,
2013-03-18 10:12:00,41.0,41.0,-100.00,East,95,6.0,13.0,99,-99.99,,,-99.99,,2013-03-18 14:12:00,
2013-03-18 10:22:00,41.0,40.0,-100.00,East,80,7.0,14.0,99,-99.99,,,-99.99,,2013-03-18 14:22:00,
2013-03-18 10:32:00,41.0,41.0,-100.00,ENE,75,4.0,11.0,99,-99.99,,,-99.99,,2013-03-18 14:32:00,
2013-03-18 10:42:00,41.0,40.0,-100.00,East,85,7.0,16.0,99,-99.99,,,-99.99,,2013-03-18 14:42:00,
2013-03-18 10:52:00,41.0,41.0,-100.00,ENE,75,3.0,11.0,99,-99.99,,,-99.99,,2013-03-18 14:52:00,
2013-03-18 11:02:00,41.0,41.0,-100.00,East,80,3.0,11.0,99,-99.99,,,-99.99,,2013-03-18 15:02:00,
2013-03-18 11:12:00,41.0,41.0,-100.00,ESE,120,3.0,15.0,99,-99.99,,,-99.99,,2013-03-18 15:12:00,
2013-03-18 11:22:00,41.0,41.0,-100.00,East,85,4.0,8.0,99,-99.99,,,-99.99,,2013-03-18 15:22:00,
2013-03-18 11:33:00,41.0,41.0,-100.00,ENE,75,5.0,12.0,99,-99.99,,,-99.99,,2013-03-18 15:33:00,
2013-03-18 11:43:00,42.0,41.0,-100.00,SE,125,1.0,9.0,99,-99.99,,,-99.99,,2013-03-18 15:43:00,
2013-03-18 11:52:00,41.0,41.0,-100.00,ENE,70,4.0,13.0,99,-99.99,,,-99.99,,2013-03-18 15:52:00,
2013-03-18 12:03:00,41.0,41.0,-100.00,East,95,5.0,10.0,99,-99.99,,,-99.99,,2013-03-18 16:03:00,
2013-03-18 12:12:00,41.0,41.0,-100.00,East,95,4.0,14.0,99,-99.99,,,-99.99,,2013-03-18 16:12:00,
2013-03-18 12:23:00,41.0,41.0,-100.00,East,80,3.0,12.0,99,-99.99,,,-99.99,,2013-03-18 16:23:00,
2013-03-18 12:33:00,42.0,42.0,-100.00,East,90,5.0,13.0,99,-99.99,,,-99.99,,2013-03-18 16:33:00,
2013-03-18 12:42:00,42.0,42.0,-100.00,East,90,5.0,16.0,99,-99.99,,,-99.99,,2013-03-18 16:42:00,
2013-03-18 12:52:00,42.0,42.0,-100.00,ESE,110,4.0,19.0,99,-99.99,,,-99.99,,2013-03-18 16:52:00,
2013-03-18 13:03:00,42.0,42.0,-100.00,East,100,5.0,16.0,99,-99.99,,,-99.99,,2013-03-18 17:03:00,
2013-03-18 13:12:00,43.0,42.0,-100.00,ENE,65,1.0,11.0,99,-99.99,,,-99.99,,2013-03-18 17:12:00,
2013-03-18 13:22:00,43.0,42.0,-100.00,ENE,70,5.0,11.0,99,-99.99,,,-99.99,,2013-03-18 17:22:00,
2013-03-18 13:33:00,42.0,42.0,-100.00,ENE,75,5.0,11.0,99,-99.99,,,-99.99,,2013-03-18 17:33:00,
2013-03-18 13:42:00,42.0,42.0,-100.00,ENE,75,4.0,12.0,99,-99.99,,,-99.99,,2013-03-18 17:42:00,
2013-03-18 13:52:00,42.0,42.0,-100.00,East,100,3.0,12.0,99,-99.99,,,-99.99,,2013-03-18 17:52:00,
2013-03-18 14:02:00,42.0,42.0,-100.00,East,85,5.0,11.0,99,-99.99,,,-99.99,,2013-03-18 18:02:00,
2013-03-18 14:12:00,43.0,43.0,-100.00,East,85,4.0,11.0,99,-99.99,,,-99.99,,2013-03-18 18:12:00,
2013-03-18 14:22:00,43.0,42.0,-100.00,ENE,70,6.0,11.0,99,-99.99,,,-99.99,,2013-03-18 18:22:00,
2013-03-18 14:32:00,43.0,43.0,-100.00,East,80,4.0,11.0,99,-99.99,,,-99.99,,2013-03-18 18:32:00,
2013-03-18 14:42:00,43.0,43.0,-100.00,ENE,75,6.0,16.0,99,-99.99,,,-99.99,,2013-03-18 18:42:00,
2013-03-18 14:52:00,43.0,42.0,-100.00,East,95,6.0,10.0,99,-99.99,,,-99.99,,2013-03-18 18:52:00,
2013-03-18 15:03:00,42.0,42.0,-100.00,SE,125,1.0,11.0,99,-99.99,,,-99.99,,2013-03-18 19:03:00,
2013-03-18 15:12:00,42.0,42.0,-100.00,ENE,70,4.0,10.0,99,-99.99,,,-99.99,,2013-03-18 19:12:00,
2013-03-18 15:22:00,42.0,42.0,-100.00,NE,40,3.0,9.0,99,-99.99,,,-99.99,,2013-03-18 19:22:00,
2013-03-18 15:33:00,42.0,42.0,-100.00,ENE,70,6.0,11.0,99,-99.99,,,-99.99,,2013-03-18 19:33:00,
2013-03-18 15:42:00,42.0,42.0,-100.00,ENE,70,7.0,11.0,99,-99.99,,,-99.99,,2013-03-18 19:42:00,
2013-03-18 15:52:00,42.0,42.0,-100.00,East,90,2.0,9.0,99,-99.99,,,-99.99,,2013-03-18 19:52:00,
2013-03-18 16:03:00,43.0,42.0,-100.00,ESE,120,1.0,10.0,99,-99.99,,,-99.99,,2013-03-18 20:03:00,
2013-03-18 16:12:00,43.0,42.0,-100.00,East,90,2.0,13.0,99,-99.99,,,-99.99,,2013-03-18 20:12:00,
2013-03-18 16:23:00,42.0,42.0,-100.00,ENE,75,4.0,11.0,99,-99.99,,,-99.99,,2013-03-18 20:23:00,
2013-03-18 16:33:00,42.0,42.0,-100.00,East,80,4.0,11.0,99,-99.99,,,-99.99,,2013-03-18 20:33:00,
2013-03-18 16:42:00,42.0,42.0,-100.00,East,80,6.0,11.0,99,-99.99,,,-99.99,,2013-03-18 20:42:00,
2013-03-18 16:52:00,42.0,42.0,-100.00,ENE,65,2.0,9.0,99,-99.99,,,-99.99,,2013-03-18 20:52:00,
2013-03-18 17:02:00,43.0,42.0,-100.00,ENE,65,2.0,9.0,99,-99.99,,,-99.99,,2013-03-18 21:02:00,
2013-03-18 17:12:00,43.0,42.0,-100.00,East,90,4.0,10.0,99,-99.99,,,-99.99,,2013-03-18 21:12:00,
2013-03-18 17:22:00,43.0,42.0,-100.00,East,80,5.0,11.0,99,-99.99,,,-99.99,,2013-03-18 21:22:00,
2013-03-18 17:33:00,43.0,42.0,-100.00,East,80,2.0,11.0,99,-99.99,,,-99.99,,2013-03-18 21:33:00,
2013-03-18 17:43:00,43.0,42.0,-100.00,ESE,110,1.0,9.0,99,-99.99,,,-99.99,,2013-03-18 21:43:00,
2013-03-18 17:52:00,43.0,42.0,-100.00,SE,135,1.0,8.0,99,-99.99,,,-99.99,,2013-03-18 21:52:00,
2013-03-18 18:03:00,42.0,42.0,-100.00,East,80,3.0,7.0,99,-99.99,,,-99.99,,2013-03-18 22:03:00,
2013-03-18 18:13:00,42.0,42.0,-100.00,East,80,2.0,9.0,99,-99.99,,,-99.99,,2013-03-18 22:13:00,
2013-03-18 18:23:00,42.0,42.0,-100.00,East,90,1.0,8.0,99,-99.99,,,-99.99,,2013-03-18 22:23:00,
2013-03-18 18:33:00,42.0,42.0,-100.00,East,85,1.0,7.0,99,-99.99,,,-99.99,,2013-03-18 22:33:00,
2013-03-18 18:42:00,42.0,42.0,-100.00,East,80,7.0,11.0,99,-99.99,,,-99.99,,2013-03-18 22:42:00,
2013-03-18 18:52:00,42.0,42.0,-100.00,ESE,120,1.0,10.0,99,-99.99,,,-99.99,,2013-03-18 22:52:00,
2013-03-18 19:03:00,42.0,42.0,-100.00,North,5,6.0,13.0,99,-99.99,,,-99.99,,2013-03-18 23:03:00,
2013-03-18 19:13:00,42.0,42.0,-100.00,ESE,110,2.0,11.0,99,-99.99,,,-99.99,,2013-03-18 23:13:00,
2013-03-18 19:23:00,42.0,42.0,-100.00,ESE,110,4.0,12.0,99,-99.99,,,-99.99,,2013-03-18 23:23:00,
2013-03-18 19:33:00,42.0,42.0,-100.00,East,90,4.0,14.0,99,-99.99,,,-99.99,,2013-03-18 23:33:00,
2013-03-18 19:42:00,42.0,42.0,-100.00,ENE,75,4.0,15.0,99,-99.99,,,-99.99,,2013-03-18 23:42:00,
2013-03-18 19:52:00,42.0,42.0,-100.00,East,85,6.0,16.0,99,-99.99,,,-99.99,,2013-03-18 23:52:00,
2013-03-18 20:03:00,42.0,42.0,-100.00,ENE,60,4.0,11.0,99,-99.99,,,-99.99,,2013-03-19 00:03:00,
2013-03-18 20:12:00,42.0,42.0,-100.00,NW,315,4.0,9.0,99,-99.99,,,-99.99,,2013-03-19 00:12:00,
2013-03-18 20:23:00,42.0,42.0,-100.00,SSE,150,1.0,3.0,99,-99.99,,,-99.99,,2013-03-19 00:23:00,
2013-03-18 20:32:00,42.0,42.0,-100.00,SSE,150,1.0,3.0,99,-99.99,,,-99.99,,2013-03-19 00:32:00,
2013-03-18 20:42:00,43.0,42.0,-100.00,ESE,120,1.0,6.0,99,-99.99,,,-99.99,,2013-03-19 00:42:00,
2013-03-18 20:52:00,42.0,42.0,-100.00,East,100,2.0,9.0,99,-99.99,,,-99.99,,2013-03-19 00:52:00,
2013-03-18 21:02:00,42.0,42.0,-100.00,SE,125,3.0,6.0,99,-99.99,,,-99.99,,2013-03-19 01:02:00,
2013-03-18 21:12:00,42.0,42.0,-100.00,ESE,105,2.0,5.0,99,-99.99,,,-99.99,,2013-03-19 01:12:00,
2013-03-18 21:23:00,42.0,42.0,-100.00,East,85,4.0,10.0,99,-99.99,,,-99.99,,2013-03-19 01:23:00,
2013-03-18 21:33:00,42.0,42.0,-100.00,ESE,105,4.0,9.0,99,-99.99,,,-99.99,,2013-03-19 01:33:00,
2013-03-18 21:43:00,42.0,42.0,-100.00,SE,125,2.0,5.0,99,-99.99,,,-99.99,,2013-03-19 01:43:00,
2013-03-18 21:52:00,42.0,42.0,-100.00,East,90,3.0,5.0,99,-99.99,,,-99.99,,2013-03-19 01:52:00,
2013-03-18 22:03:00,42.0,42.0,-100.00,East,90,3.0,5.0,99,-99.99,,,-99.99,,2013-03-19 02:03:00,
2013-03-18 22:13:00,42.0,42.0,-100.00,SE,140,4.0,5.0,99,-99.99,,,-99.99,,2013-03-19 02:13:00,
2013-03-18 22:23:00,42.0,42.0,-100.00,NNE,20,1.0,4.0,99,-99.99,,,-99.99,,2013-03-19 02:23:00,
2013-03-18 22:33:00,42.0,42.0,-100.00,East,85,3.0,4.0,99,-99.99,,,-99.99,,2013-03-19 02:33:00,
2013-03-18 22:42:00,42.0,42.0,-100.00,ENE,65,2.0,5.0,99,-99.99,,,-99.99,,2013-03-19 02:42:00,
2013-03-18 22:52:00,42.0,42.0,-100.00,ENE,75,4.0,6.0,99,-99.99,,,-99.99,,2013-03-19 02:52:00,
2013-03-18 23:02:00,42.0,42.0,-100.00,East,95,4.0,7.0,99,-99.99,,,-99.99,,2013-03-19 03:02:00,
2013-03-18 23:13:00,42.0,42.0,-100.00,East,80,2.0,7.0,99,-99.99,,,-99.99,,2013-03-19 03:13:00,
2013-03-18 23:22:00,43.0,42.0,-100.00,North,0,1.0,7.0,99,-99.99,,,-99.99,,2013-03-19 03:22:00,
2013-03-18 23:33:00,42.0,42.0,-100.00,NNE,15,1.0,4.0,99,-99.99,,,-99.99,,2013-03-19 03:33:00,
2013-03-18 23:43:00,42.0,42.0,-100.00,North,0,1.0,6.0,99,-99.99,,,-99.99,,2013-03-19 03:43:00,
2013-03-18 23:53:00,43.0,42.0,-100.00,NNE,30,0.0,4.0,99,-99.99,,,-99.99,,2013-03-19 03:53:00,